Regional Weather Roundup
Issued by NWS Mt. Holly, NJ

Home | Current Version | Previous Version | Text Only | Print | Product List | Glossary On
Versions: 1 2 3 4 5 6 7 8 9 10 11 12 13 14 15 16 17 18 19 20 21 22 23 24 25 26 27 28 29 30 31 32 33 34 35 36 37 38 39 40 41 42 43 44 45 46 47 48 49 50
000
ASUS41 KPHI 240512
RWRPHI

REGIONAL WEATHER ROUNDUP
NATIONAL WEATHER SERVICE MOUNT HOLLY NJ
100 AM EDT WED AUG 24 2016

NOTE:  "FAIR" INDICATES FEW OR NO CLOUDS BELOW 12,000 FEET WITH NO
SIGNIFICANT WEATHER AND/OR OBSTRUCTIONS TO VISIBILITY.

 * = STATION DOES NOT REPORT PRECIPITATION (E.G. RAIN, SNOW, ETC.)
        OR FOG.

NJZ015>026-240600-
SOUTHERN NEW JERSEY

CITY           SKY/WX    TMP DP  RH WIND       PRES   REMARKS
POMONA           N/A    N/A N/A N/A MISG      30.30S
WILDWOOD*      CLEAR     64  60  87 CALM      30.30S
MILLVILLE      CLEAR     61  61 100 CALM      30.30S
WRIGHTSTOWN    CLEAR     63  58  84 SW3       30.27R
MOUNT HOLLY    CLEAR     62  58  86 CALM      30.29S
TRENTON        CLEAR     63  58  83 CALM      30.29R

$$
NJZ001>014-240600-
NORTHERN NEW JERSEY

CITY           SKY/WX    TMP DP  RH WIND       PRES   REMARKS
SUSSEX         CLEAR     58  58 100 CALM      30.30R
ANDOVER*         N/A     58  57  97 CALM      30.31R
MORRISTOWN     CLEAR     59  57  94 CALM      30.29S
NEWARK         CLEAR     70  57  63 SW7       30.28R
TETERBORO      CLEAR     71  58  63 S3        30.27R
CALDWELL         N/A     64  59  83 CALM      30.29R
SOMERVILLE     PTCLDY    60  58  92 CALM      30.28R
ALLAIRE*       CLEAR     65  58  78 S6        30.31R
TOMS RIVER*    CLEAR     57  53  86 CALM      30.30S

$$
PAZ043-044-047-054-055-060>062-066>071-240600-
EASTERN PENNSYLVANIA

CITY           SKY/WX    TMP DP  RH WIND       PRES   REMARKS
PHILADELPHIA   PTCLDY    71  61  70 SW7       30.29F
NORTH PHILA    CLEAR     66  60  81 CALM      30.30S
BLUE BELL*     CLEAR     59  59 100 CALM      30.29S
DOYLESTOWN     CLEAR     66  59  78 CALM      30.29S
QUAKERTOWN*    CLEAR     59  57  94 CALM      30.31S
POTTSTOWN      CLEAR     61  58  90 CALM      30.31S
LANCASTER      CLEAR     66  62  87 CALM      30.30S
COATESVILLE    CLEAR     66  59  77 CALM      30.32S
READING        CLEAR     64  59  83 CALM      30.29S
ALLENTOWN      CLEAR     62  59  90 CALM      30.30R
MOUNT POCONO   CLEAR     55  52  89 NW6       30.34S
WILKES BARRE   CLEAR     62  56  80 E8        30.30S

$$
DEZALL-MDZ008-012-015-019-020-240600-
DELAWARE AND EASTERN MARYLAND

CITY           SKY/WX    TMP DP  RH WIND       PRES   REMARKS
WILMINGTON     CLEAR     68  58  70 SW3       30.30S
DOVER          CLEAR     66  63  89 SW5       30.29S
GEORGETOWN     PTCLDY    61  58  90 CALM      30.31S
EASTON         CLEAR     66  63  88 CALM      30.34S
PATUXENT       CLEAR     69  60  73 S5        30.29S
OCEAN CITY     CLEAR     62  59  90 CALM      30.30F
WALLOPS ISLAND CLEAR     65  60  84 CALM      30.30F
CAMBRIDGE      CLEAR     63  59  88 CALM      30.30S
SALISBURY      CLEAR     61  59  93 CALM      30.30S

$$
PAZ001-021-NYZ056-072-MDZ011-DCZ001-240600-
OTHER NEARBY LOCATIONS

CITY           SKY/WX    TMP DP  RH WIND       PRES   REMARKS
HARRISBURG     PTCLDY    68  62  81 E3        30.29R
STATE COLLEGE  PTCLDY    62  58  87 CALM      30.30F
WILLIAMSPORT   CLEAR     62  58  86 CALM      30.28S
BINGHAMTON     CLEAR     64  55  72 SW6       30.31R
NEW YORK CITY    N/A     71  58  63 VRB3      30.31R
BALTIMORE      CLEAR     64  60  87 CALM      30.30R
WASHINGTON DC  CLEAR     72  60  66 SW3       30.30S

$$



USA.gov is the U.S. government's official web portal to all federal, state and local government web resources and services.